Mount Ida, AR

10:39 PM CST on November 23, 2017 (GMT -0600)
Mount Ida

Weather History for KMWT - May, 2013

Change the Weather History Date:

Wednesday, May 8, 2013

  Actual Average (KHOT) Record (KHOT)
Temperature  
Mean Temperature 66 °F -  
Max Temperature 81 °F 80 °F 90 °F (1952)
Min Temperature 50 °F 56 °F 42 °F (1989)
Growing Degree Days 16 (Base 50)    
Moisture  
Dew Point 55 °F    
Average Humidity 66    
Maximum Humidity 97    
Minimum Humidity 42    
Precipitation  
Precipitation 0.00 in - - ()
Sea Level Pressure  
Sea Level Pressure 29.99 in    
Wind  
Wind Speed 2 mph (SE)    
Max Wind Speed 12 mph    
Max Gust Speed -    
Visibility 9 miles    
Events      
Averages and records for this station are not official NWS values.
T = Trace of Precipitation, MM = Missing Value Source: NWS Daily Summary

Daily Weather History Graph

Daily Weather History Graph

Search for Another Location

Airport or City:

Trip Planner

Search our weather history database for the weather conditions in past years. The results will help you decide how hot, cold, wet, or windy it might be!

Date:

Astronomy

May. 08, 2013 Rise Set
Actual Time 6:17 AM CDT 8:04 PM CDT
Civil Twilight 5:49 AM CDT 8:32 PM CDT
Nautical Twilight 5:16 AM CDT 9:05 PM CDT
Astronomical Twilight 4:41 AM CDT 9:40 PM CDT
Moon 5:22 AM CDT (5/8) 7:05 PM CDT (5/8)
Length of Visible Light 14h 42m
Length of Day
13h 47m
Waning Crescent, 2% of the Moon is Illuminated
May 8
Waning Crescent
May 9
New
May 17
First Quarter
May 24
Full
May 31
Last Quarter

Hourly Weather History & Observations

Time (CDT) Temp. Heat Index Dew Point Humidity Pressure Visibility Wind Dir Wind Speed Gust Speed Precip Events Conditions
12:53 AM 54.0 °F - 53.1 °F 97% 30.00 in 9.0 mi Calm Calm - N/A   Clear
1:53 AM 53.1 °F - 52.0 °F 96% 29.99 in 8.0 mi Calm Calm - N/A   Clear
2:53 AM 52.0 °F - 51.1 °F 97% 29.99 in 7.0 mi Calm Calm - N/A   Clear
3:53 AM 51.1 °F - 50.0 °F 96% 30.00 in 7.0 mi Calm Calm - N/A   Clear
4:53 AM 51.1 °F - 50.0 °F 96% 29.98 in 6.0 mi Calm Calm - N/A   Clear
5:53 AM 50.0 °F - 48.9 °F 96% 29.98 in 7.0 mi Calm Calm - N/A   Clear
6:53 AM 50.0 °F - 48.9 °F 96% 30.01 in 6.0 mi Calm Calm - N/A   Clear
7:53 AM 57.0 °F - 55.0 °F 93% 30.02 in 10.0 mi Calm Calm - N/A   Clear
8:20 AM 60.8 °F - 55.4 °F 82% 30.03 in 10.0 mi Calm Calm - N/A   Partly Cloudy
8:53 AM 64.0 °F - 57.0 °F 78% 30.02 in 10.0 mi Calm Calm - N/A   Clear
9:18 AM 69.8 °F - 55.4 °F 60% 30.04 in 10.0 mi Variable 5.8 mph - N/A   Partly Cloudy
9:53 AM 72.0 °F - 55.0 °F 55% 30.02 in 10.0 mi Variable 5.8 mph - N/A   Partly Cloudy
10:53 AM 75.0 °F - 55.0 °F 50% 30.03 in 10.0 mi Variable 4.6 mph - N/A   Partly Cloudy
11:53 AM 78.1 °F - 55.9 °F 46% 30.03 in 10.0 mi Variable 5.8 mph - N/A   Clear
12:23 PM 78.8 °F - 53.6 °F 42% 30.04 in 10.0 mi Variable 4.6 mph - N/A   Partly Cloudy
12:53 PM 78.1 °F - 53.1 °F 42% 30.02 in 10.0 mi Variable 5.8 mph - N/A   Clear
1:53 PM 80.1 °F 80.1 °F 55.0 °F 42% 30.00 in 10.0 mi Variable 5.8 mph - N/A   Scattered Clouds
2:53 PM 80.1 °F 80.2 °F 55.9 °F 43% 29.99 in 10.0 mi SE 11.5 mph - N/A   Clear
3:53 PM 80.1 °F 80.2 °F 55.9 °F 43% 29.98 in 10.0 mi Variable 4.6 mph - N/A   Scattered Clouds
4:53 PM 81.0 °F 80.8 °F 55.9 °F 42% 29.96 in 10.0 mi Variable 4.6 mph - N/A   Partly Cloudy
5:53 PM 80.1 °F 80.6 °F 57.9 °F 47% 29.95 in 10.0 mi Variable 3.5 mph - N/A   Clear
6:53 PM 78.1 °F - 55.9 °F 46% 29.93 in 10.0 mi Variable 5.8 mph - N/A   Partly Cloudy
7:53 PM 75.0 °F - 57.0 °F 53% 29.94 in 10.0 mi Calm Calm - N/A   Clear
8:53 PM 70.0 °F - 57.9 °F 65% 29.93 in 10.0 mi Calm Calm - N/A   Clear
9:53 PM 73.0 °F - 57.0 °F 57% 29.92 in 10.0 mi Variable 3.5 mph - N/A   Clear
10:53 PM 73.9 °F - 57.0 °F 55% 29.93 in 10.0 mi Variable 3.5 mph - N/A   Clear
11:53 PM 73.0 °F - 57.0 °F 57% 29.94 in 10.0 mi Variable 3.5 mph - N/A   Clear